Radiation Dose at Monitoring Post of Fukushima Daini Nuclear Power Station
Date,Time,MP-1(microSv/h),MP-2(microSv/h),MP-3(microSv/h),MP-4(microSv/h),MP-5(microSv/h),MP-6(microSv/h),MP-7(microSv/h),Wind Direction,Wind Velocity(m/s),Rain
2023/04/05,00:00,0.155,0.138,0.221,0.216,0.214,0.122,0.079,southwest,2.0,No
2023/04/05,00:10,0.155,0.139,0.220,0.216,0.215,0.122,0.078,south-southwest,1.5,No
2023/04/05,00:20,0.155,0.139,0.220,0.217,0.214,0.123,0.078,south-southwest,2.4,No
2023/04/05,00:30,0.156,0.138,0.221,0.216,0.215,0.122,0.077,southwest,2.2,No
2023/04/05,00:40,0.155,0.138,0.220,0.216,0.214,0.122,0.078,southwest,1.9,No
2023/04/05,00:50,0.155,0.138,0.220,0.216,0.214,0.123,0.078,west-southwest,1.6,No
2023/04/05,01:00,0.155,0.139,0.221,0.216,0.215,0.123,0.079,west,0.7,No
2023/04/05,01:10,0.155,0.138,0.220,0.216,0.214,0.123,0.078,west-southwest,1.3,No
2023/04/05,01:20,0.156,0.139,0.220,0.216,0.213,0.122,0.078,west-southwest,1.4,No
2023/04/05,01:30,0.154,0.139,0.221,0.217,0.215,0.122,0.079,west-southwest,1.0,No
2023/04/05,01:40,0.154,0.138,0.221,0.216,0.214,0.122,0.078,west-southwest,0.9,No
2023/04/05,01:50,0.156,0.139,0.221,0.216,0.215,0.123,0.079,-,CALM,No
2023/04/05,02:00,0.154,0.138,0.221,0.216,0.216,0.123,0.079,north-northeast,0.7,No
2023/04/05,02:10,0.156,0.138,0.221,0.216,0.214,0.123,0.079,northeast,0.6,No
2023/04/05,02:20,0.155,0.139,0.220,0.216,0.214,0.123,0.078,east-northeast,1.0,No
2023/04/05,02:30,0.155,0.139,0.221,0.216,0.215,0.123,0.078,east,1.3,No
2023/04/05,02:40,0.155,0.139,0.219,0.217,0.214,0.123,0.078,east,0.8,No
2023/04/05,02:50,0.155,0.139,0.220,0.216,0.214,0.123,0.079,-,CALM,No
2023/04/05,03:00,0.155,0.139,0.220,0.215,0.215,0.122,0.078,-,CALM,No
2023/04/05,03:10,0.155,0.138,0.219,0.216,0.214,0.122,0.078,-,CALM,No
2023/04/05,03:20,0.155,0.138,0.219,0.216,0.215,0.122,0.078,-,CALM,No
2023/04/05,03:30,0.155,0.138,0.220,0.217,0.214,0.122,0.078,-,CALM,No
2023/04/05,03:40,0.155,0.139,0.220,0.215,0.215,0.123,0.079,-,CALM,No
2023/04/05,03:50,0.154,0.139,0.220,0.215,0.213,0.122,0.079,south-southeast,0.6,No
2023/04/05,04:00,0.155,0.139,0.219,0.216,0.215,0.123,0.078,south-southeast,0.9,No
2023/04/05,04:10,0.155,0.138,0.221,0.216,0.214,0.122,0.079,southeast,1.1,No
2023/04/05,04:20,0.155,0.139,0.221,0.216,0.214,0.123,0.079,southeast,1.4,No
2023/04/05,04:30,0.156,0.138,0.221,0.217,0.215,0.123,0.078,southeast,1.8,No
2023/04/05,04:40,0.157,0.138,0.220,0.215,0.215,0.122,0.078,east-southeast,2.5,No
2023/04/05,04:50,0.155,0.139,0.220,0.216,0.213,0.122,0.079,east,2.5,No
2023/04/05,05:00,0.155,0.140,0.221,0.217,0.214,0.122,0.078,east,2.3,No
2023/04/05,05:10,0.154,0.138,0.219,0.216,0.215,0.122,0.079,east,2.2,No
2023/04/05,05:20,0.154,0.138,0.220,0.217,0.214,0.122,0.079,east-northeast,0.7,No
2023/04/05,05:30,0.156,0.139,0.220,0.215,0.214,0.122,0.078,-,CALM,No
2023/04/05,05:40,0.155,0.138,0.220,0.215,0.214,0.122,0.078,-,CALM,No
2023/04/05,05:50,0.156,0.138,0.221,0.215,0.215,0.123,0.078,west-southwest,0.6,No
2023/04/05,06:00,0.155,0.138,0.221,0.216,0.215,0.122,0.078,west,1.2,No
2023/04/05,06:10,0.155,0.138,0.220,0.216,0.213,0.123,0.079,west,1.7,No
2023/04/05,06:20,0.156,0.138,0.221,0.216,0.214,0.122,0.079,west,1.0,No
2023/04/05,06:30,0.155,0.138,0.221,0.216,0.214,0.122,0.078,west-southwest,1.3,No
2023/04/05,06:40,0.154,0.139,0.221,0.215,0.214,0.123,0.078,west-southwest,1.3,No
2023/04/05,06:50,0.156,0.138,0.220,0.214,0.214,0.123,0.079,southwest,1.8,No
2023/04/05,07:00,0.156,0.138,0.220,0.217,0.215,0.122,0.078,southwest,2.6,No
2023/04/05,07:10,0.155,0.138,0.221,0.215,0.214,0.123,0.078,southwest,2.1,No
2023/04/05,07:20,0.155,0.138,0.220,0.214,0.214,0.123,0.079,south-southwest,1.7,No
2023/04/05,07:30,0.155,0.139,0.220,0.216,0.214,0.122,0.079,south-southwest,0.6,No
2023/04/05,07:40,0.155,0.139,0.219,0.214,0.215,0.124,0.079,south-southwest,1.3,No
2023/04/05,07:50,0.155,0.138,0.219,0.217,0.213,0.122,0.079,south-southwest,1.4,No
2023/04/05,08:00,0.155,0.139,0.220,0.214,0.215,0.122,0.079,south,1.8,No
2023/04/05,08:10,0.155,0.139,0.220,0.215,0.214,0.123,0.079,south-southeast,2.4,No
2023/04/05,08:20,0.155,0.138,0.220,0.214,0.215,0.123,0.078,south-southeast,2.2,No
2023/04/05,08:30,0.155,0.139,0.220,0.216,0.214,0.123,0.079,south-southeast,2.0,No
2023/04/05,08:40,0.154,0.137,0.220,0.214,0.214,0.122,0.078,south-southeast,1.4,No
2023/04/05,08:50,0.155,0.138,0.219,0.217,0.214,0.122,0.079,southwest,0.9,No
2023/04/05,09:00,0.155,0.138,0.219,0.215,0.215,0.121,0.078,south,1.1,No
2023/04/05,09:10,0.155,0.138,0.220,0.214,0.214,0.123,0.078,south-southeast,1.8,No
2023/04/05,09:20,0.154,0.138,0.218,0.215,0.213,0.122,0.078,south-southeast,2.8,No
2023/04/05,09:30,0.155,0.139,0.220,0.214,0.215,0.122,0.079,south-southeast,3.1,No
2023/04/05,09:40,0.155,0.139,0.220,0.214,0.214,0.122,0.079,south-southeast,2.5,No
2023/04/05,09:50,0.155,0.137,0.218,0.217,0.212,0.122,0.079,south-southeast,3.2,No
2023/04/05,10:00,0.153,0.138,0.217,0.215,0.216,0.122,0.077,south-southeast,3.1,No
2023/04/05,10:10,0.154,0.138,0.220,0.213,0.214,0.122,0.079,south,4.0,No
2023/04/05,10:20,0.155,0.138,0.220,0.213,0.213,0.121,0.079,south-southeast,4.9,No
2023/04/05,10:30,0.154,0.137,0.220,0.216,0.213,0.123,0.078,south-southeast,5.7,No
2023/04/05,10:40,0.152,0.138,0.218,0.215,0.214,0.122,0.078,south-southeast,6.8,No
2023/04/05,10:50,0.153,0.137,0.218,0.214,0.214,0.121,0.078,southeast,7.8,No
2023/04/05,11:00,0.155,0.137,0.220,0.214,0.211,0.122,0.078,south-southeast,8.6,No
2023/04/05,11:10,0.154,0.137,0.219,0.215,0.214,0.121,0.078,south-southeast,8.1,No
2023/04/05,11:20,0.153,0.138,0.218,0.215,0.214,0.121,0.078,south-southeast,8.5,No
2023/04/05,11:30,0.153,0.137,0.218,0.214,0.212,0.122,0.078,south-southeast,9.8,No
2023/04/05,11:40,0.155,0.137,0.220,0.216,0.212,0.121,0.079,south-southeast,8.3,No
2023/04/05,11:50,0.155,0.137,0.220,0.217,0.214,0.121,0.078,south-southeast,8.6,No
2023/04/05,12:00,0.153,0.137,0.217,0.215,0.213,0.122,0.077,south-southeast,10.6,No
2023/04/05,12:10,0.153,0.137,0.220,0.216,0.212,0.122,0.078,south-southeast,11.4,No
2023/04/05,12:20,0.155,0.138,0.221,0.216,0.214,0.122,0.078,south-southeast,9.6,No
2023/04/05,12:30,0.154,0.137,0.220,0.215,0.214,0.121,0.078,south-southeast,10.3,No
2023/04/05,12:40,0.152,0.138,0.218,0.214,0.212,0.121,0.079,south-southeast,11.2,No
2023/04/05,12:50,0.154,0.139,0.219,0.216,0.213,0.122,0.078,south-southeast,9.2,No
2023/04/05,13:00,0.156,0.138,0.220,0.214,0.214,0.121,0.079,south-southeast,9.2,No
2023/04/05,13:10,0.155,0.138,0.220,0.213,0.213,0.121,0.077,south,8.4,No
2023/04/05,13:20,0.153,0.138,0.218,0.216,0.213,0.122,0.078,south,8.8,No
2023/04/05,13:30,0.155,0.138,0.221,0.215,0.214,0.122,0.079,south-southeast,8.6,No
2023/04/05,13:40,0.155,0.137,0.219,0.214,0.213,0.122,0.078,south-southeast,8.1,No
2023/04/05,13:50,0.153,0.138,0.218,0.216,0.213,0.122,0.077,south-southeast,8.2,No
2023/04/05,14:00,0.155,0.139,0.220,0.215,0.215,0.122,0.078,south-southeast,8.7,No
2023/04/05,14:10,0.155,0.137,0.221,0.215,0.214,0.122,0.078,south-southeast,8.6,No
2023/04/05,14:20,0.155,0.139,0.219,0.216,0.212,0.123,0.078,south-southeast,9.3,No
2023/04/05,14:30,0.153,0.138,0.217,0.215,0.213,0.123,0.079,south-southeast,10.1,No
2023/04/05,14:40,0.155,0.138,0.221,0.215,0.214,0.121,0.077,south-southeast,10.4,No
2023/04/05,14:50,0.155,0.139,0.220,0.217,0.213,0.123,0.078,south-southeast,9.8,No
2023/04/05,15:00,0.152,0.137,0.218,0.215,0.212,0.122,0.078,south-southeast,11.1,No
2023/04/05,15:10,0.155,0.138,0.220,0.215,0.215,0.122,0.078,south-southeast,10.0,No
2023/04/05,15:20,0.155,0.140,0.220,0.217,0.213,0.123,0.078,south-southeast,9.8,No
2023/04/05,15:30,0.153,0.137,0.220,0.214,0.212,0.122,0.079,south-southeast,8.8,No
2023/04/05,15:40,0.155,0.138,0.222,0.217,0.216,0.122,0.078,south-southeast,8.1,No
2023/04/05,15:50,0.155,0.137,0.219,0.215,0.213,0.122,0.078,south,8.5,No
2023/04/05,16:00,0.155,0.138,0.221,0.216,0.215,0.123,0.078,south,8.1,No
2023/04/05,16:10,0.155,0.138,0.219,0.217,0.215,0.122,0.078,south,6.7,No
2023/04/05,16:20,0.153,0.138,0.221,0.215,0.214,0.122,0.077,south,5.5,No
2023/04/05,16:30,0.155,0.138,0.219,0.217,0.214,0.123,0.077,south,5.6,No
2023/04/05,16:40,0.154,0.139,0.220,0.215,0.214,0.122,0.079,south-southwest,6.7,No
2023/04/05,16:50,0.155,0.138,0.221,0.217,0.215,0.122,0.077,south,6.3,No
2023/04/05,17:00,0.155,0.138,0.220,0.215,0.213,0.122,0.078,south,5.0,No
2023/04/05,17:10,0.155,0.138,0.221,0.217,0.215,0.123,0.078,south,5.2,No
2023/04/05,17:20,0.154,0.139,0.220,0.215,0.213,0.123,0.077,south,4.9,No
2023/04/05,17:30,0.154,0.138,0.220,0.217,0.216,0.123,0.078,south,5.3,No
2023/04/05,17:40,0.155,0.137,0.220,0.215,0.214,0.122,0.078,south,5.8,No
2023/04/05,17:50,0.154,0.138,0.220,0.217,0.214,0.122,0.078,south,6.3,No
2023/04/05,18:00,0.156,0.138,0.220,0.216,0.213,0.122,0.077,south,5.3,No
2023/04/05,18:10,0.154,0.137,0.220,0.216,0.214,0.122,0.077,south,6.4,No
2023/04/05,18:20,0.155,0.138,0.221,0.215,0.213,0.122,0.078,south,6.5,No
2023/04/05,18:30,0.154,0.137,0.220,0.218,0.214,0.121,0.077,south,7.1,No
2023/04/05,18:40,0.155,0.138,0.221,0.215,0.213,0.122,0.077,south,7.0,No
2023/04/05,18:50,0.153,0.138,0.219,0.217,0.215,0.122,0.078,south,7.2,No
2023/04/05,19:00,0.155,0.138,0.222,0.215,0.214,0.121,0.078,south,7.0,No
2023/04/05,19:10,0.155,0.137,0.219,0.216,0.215,0.122,0.078,south-southwest,7.2,No
2023/04/05,19:20,0.156,0.138,0.220,0.215,0.214,0.122,0.077,south,6.9,No
2023/04/05,19:30,0.154,0.138,0.220,0.216,0.215,0.122,0.077,south,7.0,No
2023/04/05,19:40,0.154,0.138,0.220,0.215,0.213,0.122,0.078,south,6.4,No
2023/04/05,19:50,0.154,0.138,0.220,0.216,0.215,0.123,0.078,south,6.0,No
2023/04/05,20:00,0.154,0.138,0.220,0.217,0.214,0.121,0.078,south-southeast,5.5,No
2023/04/05,20:10,0.154,0.138,0.222,0.216,0.214,0.122,0.078,south,5.6,No
2023/04/05,20:20,0.155,0.137,0.219,0.216,0.213,0.123,0.078,south,6.6,No
2023/04/05,20:30,0.154,0.138,0.219,0.216,0.214,0.121,0.078,south,6.3,No
2023/04/05,20:40,0.155,0.138,0.220,0.217,0.213,0.122,0.078,south,6.1,No
2023/04/05,20:50,0.154,0.138,0.220,0.215,0.214,0.121,0.078,south,5.6,No
2023/04/05,21:00,0.155,0.138,0.220,0.216,0.215,0.122,0.078,south,6.0,No
2023/04/05,21:10,0.154,0.138,0.219,0.216,0.214,0.122,0.078,south,4.6,No
2023/04/05,21:20,0.155,0.138,0.221,0.215,0.213,0.122,0.077,south,5.1,No
2023/04/05,21:30,0.155,0.138,0.220,0.217,0.214,0.122,0.078,south,5.4,No
2023/04/05,21:40,0.155,0.138,0.220,0.214,0.215,0.122,0.077,south,5.2,No
2023/04/05,21:50,0.154,0.139,0.220,0.216,0.214,0.122,0.078,south,4.2,No
2023/04/05,22:00,0.155,0.138,0.219,0.216,0.215,0.122,0.077,south,4.3,No
2023/04/05,22:10,0.155,0.138,0.221,0.216,0.212,0.122,0.078,south,3.9,No
2023/04/05,22:20,0.154,0.138,0.220,0.216,0.215,0.122,0.078,south,5.9,No
2023/04/05,22:30,0.155,0.138,0.219,0.216,0.213,0.123,0.078,south,6.1,No
2023/04/05,22:40,0.154,0.138,0.219,0.217,0.215,0.122,0.077,south,5.4,No
2023/04/05,22:50,0.156,0.138,0.219,0.216,0.213,0.122,0.078,south,6.4,No
2023/04/05,23:00,0.154,0.138,0.221,0.216,0.215,0.122,0.078,south,6.3,No
2023/04/05,23:10,0.155,0.138,0.220,0.215,0.213,0.122,0.077,south,6.2,No
2023/04/05,23:20,0.154,0.138,0.221,0.216,0.215,0.123,0.077,south,5.8,No
2023/04/05,23:30,0.155,0.138,0.220,0.215,0.214,0.122,0.077,south,7.3,No
2023/04/05,23:40,0.154,0.138,0.220,0.217,0.214,0.122,0.077,south,6.1,No
2023/04/05,23:50,0.155,0.139,0.221,0.216,0.214,0.122,0.078,south,5.7,No
